• In Hungary
  • List of Countries
  • For 7 days
  • Water Temperature
  • Satellite Maps
  • Weather Map
  • News
  • Weather Widgets
  • user-avatar
    Login

    Hourly Weather Anagni

    Today, 18 January, Thursday

    Time Temperature Precipitation Wind Pressure Humidity
    00:00 +3°C° 0 mm 3 mps 731 mmHg 54%
    01:00 +3°C° 0 mm 4 mps 731 mmHg 52%
    02:00 +3°C° 0 mm 3 mps 731 mmHg 51%
    03:00 +2°C° 0 mm 3 mps 732 mmHg 50%
    04:00 +3°C° 0 mm 2 mps 732 mmHg 49%
    05:00 +3°C° 0 mm 2 mps 733 mmHg 47%
    06:00 +3°C° 0 mm 2 mps 733 mmHg 45%
    07:00 +4°C° 0 mm 1 mps 733 mmHg 42%
    08:00 +6°C° 0 mm 1 mps 734 mmHg 40%
    09:00 +7°C° 0 mm 1 mps 734 mmHg 37%
    10:00 +9°C° 0 mm 1 mps 734 mmHg 34%
    11:00 +9°C° 0 mm 2 mps 734 mmHg 36%
    12:00 +10°C° 0 mm 2 mps 734 mmHg 38%
    13:00 +11°C° 0 mm 3 mps 733 mmHg 39%
    14:00 +10°C° 0 mm 3 mps 733 mmHg 47%
    15:00 +10°C° 0 mm 3 mps 733 mmHg 55%
    16:00 +9°C° 0 mm 3 mps 732 mmHg 63%
    17:00 +9°C° 0.1 mm 3 mps 732 mmHg 69%
    18:00 +8°C° 0.1 mm 3 mps 732 mmHg 75%
    19:00 +8°C° 0.1 mm 3 mps 732 mmHg 81%
    20:00 +8°C° 0.1 mm 3 mps 732 mmHg 84%
    21:00 +8°C° 0.1 mm 3 mps 732 mmHg 87%
    22:00 +8°C° 0.1 mm 3 mps 732 mmHg 91%
    23:00 +8°C° 0.1 mm 3 mps 732 mmHg 91%

    Tomorrow, 19 January, Friday

    Time Temperature Precipitation Wind Pressure Humidity
    00:00 +8°C° 0.1 mm 3 mps 731 mmHg 92%
    01:00 +8°C° 0.1 mm 3 mps 731 mmHg 93%
    02:00 +8°C° 0.1 mm 3 mps 731 mmHg 94%
    03:00 +8°C° 0.1 mm 3 mps 731 mmHg 94%
    04:00 +8°C° 0.1 mm 3 mps 730 mmHg 94%
    05:00 +9°C° 0.1 mm 3 mps 730 mmHg 94%
    06:00 +9°C° 0.1 mm 3 mps 730 mmHg 94%
    07:00 +9°C° 0.1 mm 3 mps 730 mmHg 94%
    08:00 +9°C° 0.2 mm 3 mps 730 mmHg 93%
    09:00 +9°C° 0.2 mm 3 mps 730 mmHg 92%
    10:00 +10°C° 0.2 mm 3 mps 730 mmHg 91%
    11:00 +10°C° 0.1 mm 3 mps 730 mmHg 90%
    12:00 +10°C° 0.1 mm 3 mps 729 mmHg 89%
    13:00 +10°C° 0.1 mm 3 mps 729 mmHg 88%
    14:00 +10°C° 0.1 mm 3 mps 729 mmHg 89%
    15:00 +10°C° 0.1 mm 2 mps 729 mmHg 90%
    16:00 +10°C° 0.1 mm 2 mps 728 mmHg 90%
    17:00 +10°C° 0.1 mm 2 mps 729 mmHg 91%
    18:00 +9°C° 0.1 mm 2 mps 729 mmHg 92%
    19:00 +9°C° 0.1 mm 2 mps 729 mmHg 94%
    20:00 +9°C° 0.2 mm 2 mps 729 mmHg 94%
    21:00 +9°C° 0.2 mm 2 mps 729 mmHg 94%
    22:00 +9°C° 0.2 mm 2 mps 729 mmHg 93%
    23:00 +9°C° 0.1 mm 2 mps 729 mmHg 93%

    Day after tomorrow, 20 January, Saturday

    Time Temperature Precipitation Wind Pressure Humidity
    00:00 +9°C° 0.1 mm 2 mps 728 mmHg 93%
    01:00 +9°C° 0.1 mm 2 mps 728 mmHg 93%
    02:00 +9°C° 0 mm 1 mps 728 mmHg 93%
    03:00 +9°C° 0 mm 1 mps 728 mmHg 92%
    04:00 +8°C° 0 mm 1 mps 728 mmHg 92%
    05:00 +8°C° 0 mm 1 mps 728 mmHg 92%
    06:00 +8°C° 0 mm 1 mps 728 mmHg 92%
    07:00 +7°C° 0 mm 1 mps 728 mmHg 92%
    08:00 +8°C° 0 mm 1 mps 728 mmHg 87%
    09:00 +9°C° 0 mm 1 mps 729 mmHg 83%
    10:00 +11°C° 0 mm 1 mps 729 mmHg 79%
    11:00 +11°C° 0 mm 1 mps 728 mmHg 74%
    12:00 +12°C° 0 mm 1 mps 728 mmHg 69%
    13:00 +13°C° 0 mm 1 mps 728 mmHg 65%
    14:00 +12°C° 0 mm 1 mps 728 mmHg 66%
    15:00 +12°C° 0 mm 1 mps 728 mmHg 67%
    16:00 +12°C° 0 mm 1 mps 727 mmHg 68%
    17:00 +11°C° 0 mm 1 mps 727 mmHg 73%
    18:00 +10°C° 0 mm 1 mps 727 mmHg 77%
    19:00 +8°C° 0 mm 1 mps 727 mmHg 81%
    20:00 +8°C° 0 mm 1 mps 727 mmHg 82%
    21:00 +8°C° 0 mm 1 mps 727 mmHg 83%
    22:00 +8°C° 0 mm 1 mps 727 mmHg 84%
    23:00 +7°C° 0.2 mm 2 mps 726 mmHg 85%

    21 January, Sunday

    Time Temperature Precipitation Wind Pressure Humidity
    00:00 +7°C° 0.2 mm 2 mps 725 mmHg 85%
    01:00 +7°C° 0.2 mm 2 mps 725 mmHg 86%
    02:00 +7°C° 1.5 mm 2 mps 724 mmHg 87%
    03:00 +7°C° 1.5 mm 2 mps 724 mmHg 88%
    04:00 +7°C° 1.5 mm 3 mps 723 mmHg 88%
    05:00 +5°C° 0.1 mm 3 mps 724 mmHg 88%
    06:00 +5°C° 0.1 mm 3 mps 724 mmHg 88%
    07:00 +5°C° 0.1 mm 3 mps 724 mmHg 88%
    08:00 +6°C° 0 mm 4 mps 725 mmHg 82%
    09:00 +6°C° 0 mm 5 mps 726 mmHg 76%
    10:00 +7°C° 0 mm 6 mps 727 mmHg 70%
    11:00 +7°C° 0.1 mm 6 mps 728 mmHg 65%
    12:00 +7°C° 0.1 mm 6 mps 729 mmHg 61%
    13:00 +8°C° 0.1 mm 6 mps 729 mmHg 56%
    14:00 +7°C° 0 mm 5 mps 730 mmHg 55%
    15:00 +6°C° 0 mm 5 mps 730 mmHg 54%
    16:00 +6°C° 0 mm 4 mps 731 mmHg 54%
    17:00 +4°C° 0 mm 4 mps 731 mmHg 56%
    18:00 +3°C° 0 mm 3 mps 732 mmHg 59%
    19:00 +2°C° 0 mm 3 mps 732 mmHg 62%
    20:00 +3°C° 0 mm 2 mps 733 mmHg 63%
    21:00 +3°C° 0 mm 2 mps 733 mmHg 64%
    22:00 +2°C° 0 mm 2 mps 733 mmHg 66%
    23:00 +2°C° 0 mm 2 mps 733 mmHg 65%

    22 January, Monday

    Time Temperature Precipitation Wind Pressure Humidity
    00:00 +2°C° 0 mm 2 mps 733 mmHg 65%
    01:00 +3°C° 0 mm 1 mps 734 mmHg 65%
    02:00 +3°C° 0 mm 1 mps 733 mmHg 64%
    03:00 +3°C° 0 mm 1 mps 733 mmHg 62%
    04:00 +3°C° 0 mm 1 mps 733 mmHg 61%
    05:00 +3°C° 0 mm 1 mps 733 mmHg 60%
    06:00 +3°C° 0 mm 1 mps 733 mmHg 58%
    07:00 +4°C° 0 mm 1 mps 733 mmHg 57%
    08:00 +5°C° 0 mm 1 mps 733 mmHg 53%
    09:00 +7°C° 0 mm 1 mps 734 mmHg 50%
    10:00 +9°C° 0 mm 1 mps 734 mmHg 47%
    11:00 +10°C° 0 mm 1 mps 734 mmHg 46%
    12:00 +11°C° 0 mm 1 mps 734 mmHg 45%
    13:00 +12°C° 0 mm 1 mps 734 mmHg 45%
    14:00 +12°C° 0 mm 1 mps 734 mmHg 49%
    15:00 +11°C° 0 mm 1 mps 734 mmHg 54%
    16:00 +11°C° 0 mm 1 mps 734 mmHg 59%
    17:00 +10°C° 0 mm 1 mps 734 mmHg 62%
    18:00 +8°C° 0 mm 1 mps 735 mmHg 64%
    19:00 +7°C° 0 mm 1 mps 735 mmHg 67%
    20:00 +7°C° 0 mm 1 mps 735 mmHg 67%
    21:00 +7°C° 0 mm 1 mps 736 mmHg 67%
    22:00 +6°C° 0 mm 1 mps 736 mmHg 66%
    23:00 +6°C° 0 mm 1 mps 736 mmHg 66%

    23 January, Tuesday

    Time Temperature Precipitation Wind Pressure Humidity
    00:00 +6°C° 0 mm 1 mps 736 mmHg 65%
    01:00 +6°C° 0 mm 1 mps 737 mmHg 65%
    02:00 +6°C° 0 mm 1 mps 737 mmHg 64%
    03:00 +6°C° 0 mm 1 mps 737 mmHg 63%
    04:00 +7°C° 0 mm 1 mps 737 mmHg 62%
    05:00 +7°C° 0 mm 1 mps 737 mmHg 61%
    06:00 +7°C° 0 mm 1 mps 737 mmHg 61%
    07:00 +7°C° 0 mm 1 mps 737 mmHg 60%
    08:00 +8°C° 0 mm 1 mps 738 mmHg 58%
    09:00 +10°C° 0 mm 1 mps 738 mmHg 56%
    10:00 +12°C° 0 mm 1 mps 739 mmHg 54%
    11:00 +13°C° 0 mm 1 mps 739 mmHg 51%
    12:00 +14°C° 0 mm 1 mps 739 mmHg 49%
    13:00 +15°C° 0 mm 1 mps 739 mmHg 46%
    14:00 +14°C° 0 mm 1 mps 739 mmHg 51%
    15:00 +14°C° 0 mm 1 mps 739 mmHg 56%
    16:00 +14°C° 0 mm 1 mps 739 mmHg 60%
    17:00 +12°C° 0 mm 1 mps 739 mmHg 63%
    18:00 +11°C° 0 mm 1 mps 739 mmHg 66%
    19:00 +9°C° 0 mm 1 mps 739 mmHg 69%
    20:00 +9°C° 0 mm 1 mps 739 mmHg 69%
    21:00 +9°C° 0 mm 1 mps 740 mmHg 69%
    22:00 +9°C° 0 mm 1 mps 740 mmHg 69%
    23:00 +9°C° 0 mm 1 mps 740 mmHg 69%
    Show more